Latest Coastal Weather Observations for Arlington Reef

IDQ60701

Issued at 5:45 am EST Thursday 17 April 2014 (issued every 10 minutes, with the page automatically refreshed every 10 minutes)

About coastal observations | Map of coastal stations | Coastal observations for QLD | Marine services | Other Formats
Station Details ID: 200879 Name: ARLINGTON REEF Lat: -16.72 Lon: 146.11 Height: 0.0 m
Data from the previous 72 hours. | See also: Recent months at Arlington Reef
Date/Time
EST
Temp

°C
Wind Pressure Rain
since 9am
mm
Weather Cloud Vis
km
Sea
Height
m
Swell
Dir
 
Speed
knots
Gust
knots
hPa Trend Height
m
Period
s
Dir
17/05:30am - SE 17 19 1012.6 - - - - - - - - -
17/05:00am - SE 17 19 1012.3 - - - - - - - - -
17/04:30am - SE 17 19 1012.1 - - - - - - - - -
17/04:00am - SE 16 18 1012.1 - - - - - - - - -
17/03:30am - SE 17 19 1012.2 - - - - - - - - -
17/03:00am - SE 16 19 1012.1 - - - - - - - - -
17/02:30am - SE 17 19 1012.2 - - - - - - - - -
17/02:00am - SE 17 19 1012.4 - - - - - - - - -
17/01:30am - SE 16 18 1012.6 - - - - - - - - -
17/01:00am - SE 16 18 1012.9 - - - - - - - - -
17/12:30am - SE 16 18 1013.2 - - - - - - - - -
17/12:00am - SE 15 18 1013.4 - - - - - - - - -
 
Date/Time
EST
Temp

°C
Wind Pressure Rain
since 9am
mm
Weather Cloud Vis
km
Sea
Height
m
Swell
Dir
 
Speed
knots
Gust
knots
hPa Trend Height
m
Period
s
Dir
16/11:30pm - SE 15 18 1013.4 - - - - - - - - -
16/11:00pm - SE 15 17 1013.6 - - - - - - - - -
16/10:30pm - SE 15 17 1013.8 - - - - - - - - -
16/10:00pm - SE 16 18 1013.5 - - - - - - - - -
16/09:30pm - SSE 15 17 1013.5 - - - - - - - - -
16/09:00pm - SSE 15 17 1013.4 - - - - - - - - -
16/08:30pm - SSE 16 18 1013.2 - - - - - - - - -
16/08:00pm - SSE 15 18 1013.0 - - - - - - - - -
16/07:30pm - S 15 17 1012.6 - - - - - - - - -
16/07:00pm - S 15 17 1012.2 - - - - - - - - -
16/06:30pm - S 15 18 1011.9 - - - - - - - - -
16/06:00pm - SSE 15 17 1011.8 - - - - - - - - -
16/05:30pm - SSE 15 16 1011.6 - - - - - - - - -
16/05:00pm - SSE 14 17 1011.4 - - - - - - - - -
16/04:30pm - SSE 13 15 1011.3 - - - - - - - - -
16/04:00pm - SSE 13 15 1011.2 - - - - - - - - -
16/03:30pm - SSE 13 15 1011.2 - - - - - - - - -
16/03:00pm - SSE 13 15 1011.2 - - - - - - - - -
16/02:30pm - SSE 12 14 1011.3 - - - - - - - - -
16/02:00pm - SSE 14 16 1011.6 - - - - - - - - -
16/01:30pm - SSE 14 16 1011.9 - - - - - - - - -
16/01:00pm - SSE 14 16 1012.1 - - - - - - - - -
16/12:30pm - SSE 13 16 1012.6 - - - - - - - - -
16/12:00pm - SE 14 15 1013.0 - - - - - - - - -
16/11:30am - SE 14 16 1013.6 - - - - - - - - -
16/11:00am - SE 15 17 1014.0 - - - - - - - - -
16/10:30am - SE 15 18 1014.1 - - - - - - - - -
16/10:00am - SE 15 17 1014.2 - - - - - - - - -
16/09:30am - SE 14 17 1014.3 - - - - - - - - -
16/09:00am - SE 13 16 1014.0 - - - - - - - - -
16/08:30am - SE 14 16 1013.6 - - - - - - - - -
16/08:00am - SE 14 18 1013.2 - - - - - - - - -
16/07:30am - SE 12 14 1013.1 - - - - - - - - -
16/07:00am - SE 12 15 1012.8 - - - - - - - - -
16/06:30am - SE 13 15 1012.4 - - - - - - - - -
16/06:00am - SE 13 15 1012.2 - - - - - - - - -
16/05:30am - SE 13 15 1011.9 - - - - - - - - -
16/05:00am - SE 12 14 1011.8 - - - - - - - - -
16/04:30am - SE 11 13 1011.7 - - - - - - - - -
16/04:00am - SE 13 14 1011.6 - - - - - - - - -
16/03:30am - SE 11 13 1011.6 - - - - - - - - -
16/03:00am - ESE 12 14 1011.7 - - - - - - - - -
16/02:30am - ESE 13 15 1011.8 - - - - - - - - -
16/02:00am - ESE 11 12 1012.2 - - - - - - - - -
16/01:30am - ESE 12 14 1012.2 - - - - - - - - -
16/01:00am - SE 11 13 1012.6 - - - - - - - - -
16/12:30am - ESE 11 13 1012.9 - - - - - - - - -
16/12:00am - ESE 11 12 1013.2 - - - - - - - - -
 
Date/Time
EST
Temp

°C
Wind Pressure Rain
since 9am
mm
Weather Cloud Vis
km
Sea
Height
m
Swell
Dir
 
Speed
knots
Gust
knots
hPa Trend Height
m
Period
s
Dir
15/11:30pm - ESE 11 14 1013.2 - - - - - - - - -
15/11:00pm - SE 11 13 1013.5 - - - - - - - - -
15/10:30pm - SE 10 12 1013.8 - - - - - - - - -
15/10:00pm - SE 11 13 1013.9 - - - - - - - - -
15/09:30pm - ESE 12 14 1013.8 - - - - - - - - -
15/09:00pm - SE 13 14 1013.5 - - - - - - - - -
15/08:30pm - SE 11 14 1013.2 - - - - - - - - -
15/08:00pm - ESE 13 14 1012.9 - - - - - - - - -
15/07:30pm - SE 13 14 1012.4 - - - - - - - - -
15/07:00pm - SE 13 16 1012.0 - - - - - - - - -
15/06:30pm - SE 12 15 1011.7 - - - - - - - - -
15/06:00pm - SE 13 16 1011.5 - - - - - - - - -
15/05:30pm - SE 13 15 1011.3 - - - - - - - - -
15/05:00pm - SE 14 17 1011.0 - - - - - - - - -
15/04:30pm - SE 14 15 1010.8 - - - - - - - - -
15/04:00pm - SE 14 16 1010.6 - - - - - - - - -
15/03:30pm - SSE 13 15 1010.4 - - - - - - - - -
15/03:00pm - SSE 13 16 1010.5 - - - - - - - - -
15/02:30pm - SSE 13 15 1010.8 - - - - - - - - -
15/02:00pm - SSE 12 14 1011.2 - - - - - - - - -
15/01:30pm - SSE 11 13 1011.3 - - - - - - - - -
15/01:00pm - SE 11 13 1011.6 - - - - - - - - -
15/12:30pm - SE 10 12 1012.1 - - - - - - - - -
15/12:00pm - SE 11 13 1012.5 - - - - - - - - -
15/11:30am - SE 12 14 1012.8 - - - - - - - - -
15/11:00am - SE 13 14 1013.1 - - - - - - - - -
15/10:30am - SE 12 14 1013.5 - - - - - - - - -
15/10:00am - SSE 13 15 1013.4 - - - - - - - - -
15/09:30am - SSE 13 15 1013.1 - - - - - - - - -
15/09:00am - SSE 12 14 1013.1 - - - - - - - - -
15/08:30am - SE 11 13 1012.9 - - - - - - - - -
15/08:00am - SE 12 14 1012.6 - - - - - - - - -
15/07:30am - SE 13 15 1012.3 - - - - - - - - -
15/07:00am - SE 15 17 1011.7 - - - - - - - - -
15/06:30am - SE 16 18 1011.2 - - - - - - - - -
15/06:00am - SE 13 15 1011.2 - - - - - - - - -
15/05:30am - SE 13 14 1011.0 - - - - - - - - -
15/05:00am - SE 13 15 1010.9 - - - - - - - - -
15/04:30am - SE 12 14 1010.8 - - - - - - - - -
15/04:00am - SE 12 14 1010.9 - - - - - - - - -
15/03:30am - SE 11 13 1010.6 - - - - - - - - -
15/03:00am - SE 11 12 1010.5 - - - - - - - - -
15/02:30am - SE 10 12 1010.7 - - - - - - - - -
15/02:00am - ESE 9 11 1010.7 - - - - - - - - -
15/01:30am - ESE 9 10 1010.9 - - - - - - - - -
15/01:00am - ESE 8 9 1011.1 - - - - - - - - -
15/12:30am - SE 9 10 1011.3 - - - - - - - - -
15/12:00am - SE 8 9 1011.6 - - - - - - - - -
 
Date/Time
EST
Temp

°C
Wind Pressure Rain
since 9am
mm
Weather Cloud Vis
km
Sea
Height
m
Swell
Dir
 
Speed
knots
Gust
knots
hPa Trend Height
m
Period
s
Dir
14/11:30pm - SE 8 10 1011.7 - - - - - - - - -
14/11:00pm - SE 8 10 1012.0 - - - - - - - - -
14/10:30pm - ESE 9 10 1011.9 - - - - - - - - -
14/10:00pm - ESE 10 12 1011.6 - - - - - - - - -
14/09:30pm - ESE 9 10 1011.7 - - - - - - - - -
14/09:00pm - ESE 9 11 1011.5 - - - - - - - - -
14/08:30pm - ESE 9 10 1011.3 - - - - - - - - -
14/08:00pm - ESE 8 10 1010.9 - - - - - - - - -
14/07:30pm - SE 9 11 1010.3 - - - - - - - - -
14/07:00pm - SE 10 12 1009.9 - - - - - - - - -
14/06:30pm - SE 10 12 1009.5 - - - - - - - - -
14/06:00pm - SE 10 12 1009.2 - - - - - - - - -
14/05:30pm - SE 11 13 1008.8 - - - - - - - - -
14/05:00pm - ESE 10 12 1008.6 - - - - - - - - -
14/04:30pm - ESE 11 12 1008.4 - - - - - - - - -
14/04:00pm - SE 10 12 1008.3 - - - - - - - - -
14/03:30pm - SE 10 12 1008.1 - - - - - - - - -
14/03:00pm - SE 10 11 1008.0 - - - - - - - - -
14/02:30pm - SE 10 11 1008.2 - - - - - - - - -
14/02:00pm - SE 10 12 1008.4 - - - - - - - - -
14/01:30pm - SE 11 13 1008.6 - - - - - - - - -
14/01:00pm - SE 12 14 1008.8 - - - - - - - - -
14/12:30pm - SSE 12 13 1009.1 - - - - - - - - -
14/12:00pm - SSE 13 15 1009.5 - - - - - - - - -
14/11:30am - SSE 12 14 1010.0 - - - - - - - - -
14/11:00am - SSE 11 13 1010.4 - - - - - - - - -
14/10:30am - SSE 11 12 1010.5 - - - - - - - - -
14/10:00am - SSE 13 14 1010.5 - - - - - - - - -
14/09:30am - SSE 13 15 1010.3 - - - - - - - - -
14/09:00am - SE 13 16 1010.1 - - - - - - - - -
14/08:30am - SE 15 18 1009.7 - - - - - - - - -
14/08:00am - ESE 15 17 1009.6 - - - - - - - - -
14/07:30am - SE 12 14 1009.6 - - - - - - - - -
14/07:00am - SE 14 17 1009.3 - - - - - - - - -
14/06:30am - SE 14 17 1008.9 - - - - - - - - -
14/06:00am - SE 15 17 1008.3 - - - - - - - - -

Other Formats:

Comma delimited format used in spreadsheet applications
http://www.bom.gov.au/fwo/IDQ60701/IDQ60701.94284.axf

JavaScript Object Notation format (JSON) in row-major order
http://www.bom.gov.au/fwo/IDQ60701/IDQ60701.94284.json